sat.trackr.live / text

‹ back to catalog

ORBCOMM FM117

NORAD 41188 · 2015-081K

PAYLOAD ACTIVE UNKNOWN

§ Identity

Operator
Country
ORB
Launch date
2015-12-22
Launch site
AFETR
Launch vehicle
Mass (kg)
RCS (m²)
0.54

Purposes: comms

External: N2YO · Heavens-Above · Gunter

§ Orbital elements

Epoch: 2026-09-19T21:32:48.711264Z

Period
98.70 min
Inclination
47.0002°
Eccentricity
0.0003014
Mean motion
14.58964959 rev/d
Perigee alt
694.4 km
Apogee alt
698.7 km
Semi-major
7,074.7 km
B*
8.7115e-5
RAAN
92.9775°
Arg perigee
277.5082°
Mean anomaly
82.5461°
Rev number
57,395

§ Raw data

ORBCOMM FM1171 41188U 15081K   26262.89778601  .00000241  00000+0  87115-4 0  99932 41188  47.0002  92.9775 0003014 277.5082  82.5461 14.58964959573950

JSON: /api/v1/satellites/41188 · /tle

For live sub-satellite position, see the globe view (requires WebGL).

§ Visibility from observer

Set your observer location to see the next 7 days of passes ≥ 10°. The values pass through the URL so the page stays shareable.

No JS? Fill the form by hand. The geolocation button needs JavaScript.

§ Radio — SatNOGS DB

ModeDescriptionDownlinkUplink
FM Telemetry 137.460 MHz
FM Telemetry 137.713 MHz

2 transmitters · refreshed weekly from db.satnogs.org